2023/08/12 00:00:00, 0.2,23.6
2023/08/12 00:10:00, 0.2,23.4
2023/08/12 00:20:00, 0.2,23.4
2023/08/12 00:30:00, 0.2,23.5
2023/08/12 00:40:00, 0.2,23.4
2023/08/12 00:50:00, 0.2,23.2
2023/08/12 01:00:00, 0.2,23.1
2023/08/12 01:10:00, 0.2,23.0
2023/08/12 01:20:00, 0.2,22.9
2023/08/12 01:30:00, 0.2,23.0
2023/08/12 01:40:00, 0.2,22.9
2023/08/12 01:50:00, 0.2,23.0
2023/08/12 02:00:00, 0.2,23.2
2023/08/12 02:10:00, 0.2,22.7
2023/08/12 02:20:00, 0.2,22.8
2023/08/12 02:30:00, 0.2,22.5
2023/08/12 02:40:00, 0.2,22.6
2023/08/12 02:50:00, 0.2,22.4
2023/08/12 03:00:00, 0.2,22.5
2023/08/12 03:10:00, 0.2,22.4
2023/08/12 03:20:00, 0.2,22.3
2023/08/12 03:30:00, 0.2,22.3
2023/08/12 03:40:00, 0.2,22.3
2023/08/12 03:50:00, 0.2,22.3
2023/08/12 04:00:00, 0.2,22.2
2023/08/12 04:10:00, 0.2,22.9
2023/08/12 04:20:00, 0.2,22.2
2023/08/12 04:30:00, 0.2,22.0
2023/08/12 04:40:00, 0.2,22.0
2023/08/12 04:50:00, 0.2,22.1
2023/08/12 05:00:00, 0.2,22.0
2023/08/12 05:10:00, 0.2,22.0
2023/08/12 05:20:00, 0.2,21.9
2023/08/12 05:30:00, 0.2,21.7
2023/08/12 05:40:00, 0.2,22.1
2023/08/12 05:50:00, 0.2,22.3
2023/08/12 06:00:00, 0.2,22.4
2023/08/12 06:10:00, 0.2,22.9
2023/08/12 06:20:00, 0.2,23.4
2023/08/12 06:30:00, 0.2,24.1
2023/08/12 06:40:00, 0.2,24.7
2023/08/12 06:50:00, 0.2,25.5
2023/08/12 07:00:00, 0.2,26.3
2023/08/12 07:10:00, 0.2,26.8
2023/08/12 07:20:00, 0.2,27.2
2023/08/12 07:30:00, 0.2,27.9
2023/08/12 07:40:00, 0.3,28.4
2023/08/12 07:50:00, 0.3,29.0
2023/08/12 08:00:00, 0.5,29.7
2023/08/12 08:10:00, 0.5,29.9
2023/08/12 08:20:00, 0.5,30.3
2023/08/12 08:30:00, 0.5,32.3
2023/08/12 08:40:00, 0.6,31.9
2023/08/12 08:50:00, 0.8,32.4
2023/08/12 09:00:00, 2.7,32.8
2023/08/12 09:10:00, 8.7,33.8
2023/08/12 09:20:00, 5.3,32.9
2023/08/12 09:30:00, 0.5,33.1
2023/08/12 09:40:00, 0.5,33.3
2023/08/12 09:50:00, 0.5,33.3
2023/08/12 10:00:00, 0.5,33.6
2023/08/12 10:10:00, 0.5,33.5
2023/08/12 10:20:00, 2.1,33.7
2023/08/12 10:30:00, 3.8,34.3
2023/08/12 10:40:00, 3.4,34.1
2023/08/12 10:50:00, 2.3,34.0
2023/08/12 11:00:00, 7.6,34.0
2023/08/12 11:10:00, 7.9,34.8
2023/08/12 11:20:00, 7.7,35.5
2023/08/12 11:30:00, 7.0,35.2
2023/08/12 11:40:00, 3.4,35.2
2023/08/12 11:50:00, 6.8,35.3
2023/08/12 12:00:00, 4.6,35.1
2023/08/12 12:10:00, 3.0,34.6
2023/08/12 12:20:00, 2.5,35.0
2023/08/12 12:30:00, 5.2,34.8
2023/08/12 12:40:00, 6.1,34.9
2023/08/12 12:50:00, 6.6,35.0
2023/08/12 13:00:00, 6.0,35.0
2023/08/12 13:10:00, 2.8,34.4
2023/08/12 13:20:00, 3.9,34.0
2023/08/12 13:30:00, 5.4,34.5
2023/08/12 13:40:00, 5.4,34.3
2023/08/12 13:50:00, 5.7,34.7
2023/08/12 14:00:00, 5.7,34.8
2023/08/12 14:10:00, 5.3,34.9
2023/08/12 14:20:00, 5.8,35.3
2023/08/12 14:30:00, 5.8,34.5
2023/08/12 14:40:00, 5.9,34.8
2023/08/12 14:50:00, 5.8,35.3
2023/08/12 15:00:00, 5.9,35.4
2023/08/12 15:10:00, 6.0,34.8
2023/08/12 15:20:00, 6.0,34.8
2023/08/12 15:30:00, 5.9,34.5
2023/08/12 15:40:00, 5.8,34.5
2023/08/12 15:50:00, 5.9,34.8
2023/08/12 16:00:00, 6.0,34.6
2023/08/12 16:10:00, 5.9,34.2
2023/08/12 16:20:00, 6.0,34.3
2023/08/12 16:30:00, 6.0,31.6
2023/08/12 16:40:00, 6.1,31.4
2023/08/12 16:50:00, 6.2,34.8
2023/08/12 17:00:00, 6.3,33.1
2023/08/12 17:10:00, 6.3,32.9
2023/08/12 17:20:00, 6.5,32.8
2023/08/12 17:30:00, 6.6,31.9
2023/08/12 17:40:00, 6.7,31.1
2023/08/12 17:50:00, 6.8,30.9
2023/08/12 18:00:00, 6.9,30.2
2023/08/12 18:10:00, 7.0,29.3
2023/08/12 18:20:00, 7.3,28.6
2023/08/12 18:30:00, 7.3,28.3
2023/08/12 18:40:00, 7.4,27.7
2023/08/12 18:50:00, 7.5,27.4
2023/08/12 19:00:00, 7.6,27.2
2023/08/12 19:10:00, 7.5,26.6
2023/08/12 19:20:00, 7.6,26.2
2023/08/12 19:30:00, 7.5,26.2
2023/08/12 19:40:00, 7.6,25.3
2023/08/12 19:50:00, 7.7,25.6
2023/08/12 20:00:00, 7.6,25.6
2023/08/12 20:10:00, 7.7,25.3
2023/08/12 20:20:00, 7.6,25.0
2023/08/12 20:30:00, 7.7,25.2
2023/08/12 20:40:00, 7.6,25.1
2023/08/12 20:50:00, 7.5,25.2
2023/08/12 21:00:00, 7.2,25.2
2023/08/12 21:10:00, 1.3,25.2
2023/08/12 21:20:00, 0.3,25.0
2023/08/12 21:30:00, 0.5,25.0
2023/08/12 21:40:00, 0.9,25.0
2023/08/12 21:50:00, 2.6,25.1
2023/08/12 22:00:00, 4.7,25.0
2023/08/12 22:10:00, 5.4,24.7
2023/08/12 22:20:00, 5.8,24.6
2023/08/12 22:30:00, 5.7,24.5
2023/08/12 22:40:00, 5.7,24.6
2023/08/12 22:50:00, 1.4,24.0
2023/08/12 23:00:00, 0.2,24.0
2023/08/12 23:10:00, 0.2,24.0
2023/08/12 23:20:00, 0.2,23.9
2023/08/12 23:30:00, 0.2,23.8
2023/08/12 23:40:00, 0.2,23.7
2023/08/12 23:50:00, 0.2,23.4
